Kezdőlap
METAR-TAF:

METAR-TAF

Repülőterek :

Faribault Municipal Airport

Faribault, Minnesota, Amerikai Egyesült Államok

földrajzi szélesség: 44-20N, földrajzi hosszúság: 093-19W, magasság: 322 m

Jelenlegi meteorológiai megfigyelések

A jelentés 18 perccel ezelõtt készült, 17:15 UTC
Déli szél 9 kt
Hőmérséklet 28°C
Páratartalom 74%
Légköri nyomás 1017 hPa
Látótávolság: 16.1 km
Szórványos felhőzet 2400 lábon

METAR: KFBL 131715Z AUTO 17009KT 10SM SCT024 28/23 A3002 RMK AO2

Idő: 12:33 (17:33 UTC)


TAF: hiányzik

Meteorológiai megfigyelések és előrejelzések több, mint 4000 repülőtéren (METAR és TAF jelentéseket).

A térképen piros és sárga pontok jelzik az elérhető meteorológiai állomásokat.

Mozgassa az egeret a pont fölött, hogy megjelenjen az állomás neve.

Azután kattintson az időjárási megfigyelések és előrejelzések megtekintéséhez.

A térkép megváltoztatása: kattintson a fekete keresztel jelölt zöld gombra ráközelítéshez, a vonallal jelölt zöld gombra távolításhoz, vagy a zöld nyilakra a szomszédos térképek eléréséhez.


METAR-TAF: